Welcome to the New NWS' Forecast!
Most changes are behind the scenes, but click here for differences you might notice.
Latest weather observations around

College Park Airport (KCGS)

Using English Units (Switch to International System of Units)
Date/ Time (EST) Wind (mph) Vis. (mi) Weather Sky Cond. Temp (°F) Rel. Humidity Wind Chill (°F) Heat Index (°F) Pressure Precip. (in)
Air Dwpt 6 hour Altimeter (inHg) Sea level (inHg) 1 hr 3 hr 6 hr
Max Min
Dec 14 02:46 S 3 10 Cloudy BKN060 OVC095 35 15     44% 32   29.52        
Dec 14 02:26 S 5 10 Mostly Cloudy BKN060 BKN120 35 15     43% 31   29.52        
Dec 14 02:06 Calm 10 Cloudy SCT060 SCT070 OVC110 35 14     41%     29.52        
Dec 14 01:46 S 5 10 Cloudy OVC110 35 14     41% 31   29.53        
Dec 14 01:26 SSW 3 10 Cloudy OVC110 35 13     40% 33   29.54        
Dec 14 01:06 SSW 7 10 Cloudy OVC110 36 13     39% 30   29.55        
Dec 14 00:46 S 7 10 Cloudy OVC110 36 13     38% 30   29.56        
Dec 14 00:26 SSW 5 10 Mostly Cloudy BKN100 35 12     38% 31   29.57        
Dec 14 00:06 SSW 3 10 Cloudy OVC090 35 12     38% 33   29.58        
Dec 13 23:46 S 7 10 Cloudy BKN090 OVC110 35 12     38% 29   29.59        
Dec 13 23:26 S 6 10 Cloudy OVC090 35 12     38% 30   29.6        
Dec 13 23:06 S 5 10 Cloudy OVC090 34 11     38% 30   29.61        
Dec 13 22:46 S 3 10 Cloudy SCT050 SCT065 OVC090 34 11     39% 31   29.63        
Dec 13 22:26 Calm 10 Cloudy OVC100 34 11     39%     29.65        
Dec 13 22:06 Calm 10 Cloudy SCT070 OVC100 33 11     39%     29.65        
Dec 13 21:46 SSE 5 10 Cloudy OVC070 33 11     39% 29            
Dec 13 21:26 S 3 10 Cloudy SCT060 OVC070 33 11     39% 30   29.66        
Dec 13 21:06 S 6 10 Cloudy SCT025 BKN036 OVC075 33 11     40% 27   29.66        
Dec 13 20:46 SSE 6 10 Cloudy SCT025 BKN036 OVC046 33 9     37% 27   29.67        
Dec 13 20:26 S 6 10 Cloudy SCT028 SCT033 OVC046 33 8     35% 27   29.68        
Dec 13 20:06 S 5 10 Cloudy SCT029 BKN033 OVC042 33 8     34% 28   29.69        
Dec 13 19:46 S 5 10 Cloudy SCT020 BKN034 OVC042 33 9     36% 28   29.71        
Dec 13 19:26 SSE 3 10 Cloudy SCT016 BKN035 OVC046 33 9     36% 30   29.71        
Dec 13 19:06 S 5 10 Cloudy SCT036 BKN048 OVC055 33 8     34% 28   29.72        
Dec 13 18:46 S 6 10 Mostly Cloudy SCT048 SCT060 BKN090 33 7     33% 28   29.72        
Dec 13 18:26 SSW 5 10 Mostly Cloudy SCT060 BKN080 BKN100 33 6     32% 28   29.73        
Dec 13 18:06 S 3 10 Mostly Cloudy SCT060 BKN070 BKN095 33 7     33% 30   29.74        
Dec 13 17:46 SSW 5 10 Mostly Cloudy BKN060 32 6     32% 28   29.75        
Dec 13 17:26 SW 7 10 Cloudy OVC060 32 6     32% 26   29.76        
Dec 13 17:06 SSW 5 10 Mostly Cloudy BKN060 32 6     32% 28   29.75        
Dec 13 16:46 SW 6 10 Partly Cloudy SCT060 32 5     31% 26   29.75        
Dec 13 16:26 WSW 5 10 Clear CLR 32 5     32% 27   29.76        
Dec 13 16:06 W 3 10 Clear CLR 32 6     32% 29   29.76        
Dec 13 15:46 WSW 8 10 Clear CLR 32 6     32% 25   29.76        
Dec 13 15:26 W 6 10 Clear CLR 32 6     32% 26   29.76        
Dec 13 15:06 W 10 10 Clear CLR 32 5     31% 24   29.77        
Dec 13 14:46 WSW 9 10 Clear CLR 32 5     31% 24   29.77        
Dec 13 14:26 W 8 10 Clear CLR 32 5     32% 25   29.77        
Dec 13 14:06 WNW 10 10 Clear CLR 32 5     32% 24   29.78        
Dec 13 13:46 W 10 10 Clear CLR 32 5     31% 23   29.78        
Dec 13 13:26 WNW 11 10 Clear CLR 31 4     31% 22   29.78        
Dec 13 13:06 W 10 10 Clear CLR 31 4     32% 22   29.78        
Dec 13 12:46 WSW 10 10 Clear CLR 31 4     31% 22   29.79        
Dec 13 12:26 WSW 18 10 Clear CLR 29 3     32% 17   29.8        
Dec 13 12:06 WSW 14 10 Clear CLR 29 3     32% 18   29.81        
Dec 13 11:46 WSW 17 10 Clear CLR 29 2     32% 17   29.81        
Dec 13 11:26 WSW 7 10 Clear CLR 28 2     32% 21   29.82        
Dec 13 11:06 WSW 16 10 Clear CLR 27 1     32% 15   29.83        
Dec 13 10:46 WSW 15 10 Clear CLR 27 0     31% 15   29.84        
Dec 13 10:26 WSW 14 10 Clear CLR 26 0     32% 14   29.85        
Dec 13 10:06 WSW 16 10 Clear CLR 25 -1     32% 13   29.85        
Dec 13 09:46 WSW 16 10 Clear CLR 24 0     33% 11   29.85        
Dec 13 09:26 WSW 11 10 Clear CLR 24 0     34% 13   29.85        
Dec 13 09:06 WSW 15 10 Clear CLR 23 -1     34% 11   29.85        
Dec 13 08:46 WSW 14 10 Clear CLR 23 -1     35% 10   29.84        
Dec 13 08:26 WSW 7 10 Clear CLR 22 0     37% 14   29.84        
Dec 13 08:06 WSW 13 10 Clear CLR 22 0     37% 9   29.84        
Dec 13 07:26 WSW 7 10 Clear CLR 21 0     39% 13   29.83        
Dec 13 07:06 WSW 9 10 Clear CLR 21 0     38% 11   29.82        
Dec 13 06:46 WSW 11 10 Clear CLR 21 -1     38% 10   29.81        
Dec 13 06:26 WSW 14 10 Clear CLR 21 -1     38% 8   29.81        
Dec 13 06:06 WSW 10 10 Clear CLR 21 -1     38% 10   29.8        
Dec 13 05:46 WSW 15 10 Clear CLR 21 0     38% 8   29.79        
Dec 13 05:26 WSW 15 10 Clear CLR 21 -1     38% 8   29.78        
Dec 13 05:06 WSW 9 10 Clear CLR 21 0     39% 11   29.78        
Dec 13 04:46 WSW 11 10 Clear CLR 21 0     39% 10   29.77        
Dec 13 04:26 WSW 11 10 Partly Cloudy SCT060 21 0     38% 10   29.77        
Dec 13 04:06 WSW 8 10 Partly Cloudy SCT060 22 -1     37% 12   29.77        
Dec 13 03:46 WSW 14 10 Partly Cloudy SCT060 22 -1     36% 9   29.77        
Dec 13 03:26 WSW 11 10 Partly Cloudy SCT060 22 0     38% 10   29.77        
Dec 13 03:06 WSW 8 10 Clear CLR 22 0     39% 13   29.77        
Dec 13 02:46 WNW 17 10 Partly Cloudy SCT048 SCT055 22 0     39% 8   29.76        
Dec 13 02:26 WNW 10 10 Partly Cloudy SCT055 22 0     38% 11   29.77        
Dec 13 02:06 WNW 11 10 Partly Cloudy SCT050 SCT055 22 1     40% 11   29.76        
Dec 13 01:46 WNW 9 10 Partly Cloudy SCT060 22 3     43% 12   29.76        
Dec 13 01:26 WNW 10 10 Clear CLR 22 4     45% 11   29.75        
Dec 13 01:06 WNW 7 10 Clear CLR 22 5     47% 13   29.75        
Dec 13 00:46 NW 14 10 Partly Cloudy SCT065 22 4     45% 9   29.74        
Dec 13 00:26 NW 13 10 Partly Cloudy SCT065 23 5     46% 11   29.74        
Dec 13 00:06 WNW 13 10 Partly Cloudy SCT065 23 5     45% 11   29.74        
Dec 12 23:46 WNW 15 10 Clear CLR 23 5     45% 10   29.74        
Dec 12 23:26 NW 14 10 Clear CLR 24 4     43% 11   29.73        
Dec 12 23:06 WNW 13 10 Clear CLR 24 3     40% 12   29.72        
Dec 12 22:46 NW 13 10 Clear CLR 24 4     42% 12   29.72        
Dec 12 22:26 NW 17 10 Clear CLR 25 5     42% 11   29.72        
Dec 12 22:06 WNW 13 10 Clear CLR 25 3     39% 14   29.72        
Dec 12 21:46 NW 21 10 Clear and Windy CLR 26 5     41% 11   29.71        
Dec 12 21:26 WNW 14 10 Partly Cloudy SCT050 27 7     42% 15   29.71        
Dec 12 21:06 NW 15 10 Clear CLR 27 8     42% 16   29.71        
Dec 12 20:46 NW 16 10 Clear CLR 28 6     39% 16   29.7        
Dec 12 20:26 WNW 17 10 Clear CLR 29 6     37% 17   29.71        
Dec 12 20:06 NW 10 10 Partly Cloudy SCT049 29 8     40% 20   29.7        
Dec 12 19:46 NW 17 10 Mostly Cloudy BKN045 31 12     44% 20   29.69        
Dec 12 19:26 WNW 17 10 Partly Cloudy SCT043 SCT048 SCT100 32 15     49% 21   29.67        
Dec 12 19:06 NW 21 10 Mostly Cloudy and Windy SCT060 BKN100 33 17     51% 21   29.67        
Dec 12 18:46 NNW 17 10 Mostly Cloudy SCT060 BKN100 BKN120 35 16     45% 25   29.64        
Dec 12 18:26 NW 16 10 Cloudy SCT060 SCT100 OVC120 37 17     43% 27   29.63        
Dec 12 18:06 WNW 15 10 Cloudy OVC110 37 15     40% 28   29.62        
Dec 12 17:46 WNW 14 10 Cloudy OVC110 38 15     38% 29   29.61        
Dec 12 17:26 WNW 15 10 Cloudy OVC110 39 17     41% 30   29.59        
Dec 12 17:06 WNW 10 10 Cloudy OVC110 39 19     45% 33   29.58        
Dec 12 16:46 NW 9 10 Cloudy OVC100 39 20     45% 33   29.57        
Dec 12 16:26 NW 10 10 Cloudy OVC100 40 20     44% 34   29.57        
Dec 12 16:06 NW 20 10 Cloudy and Windy SCT047 OVC100 42 24     49% 33   29.55        
Dec 12 15:46 NW 6 10 Cloudy OVC090 43 25     48% 40   29.54        
Dec 12 15:26 WNW 11 10 Cloudy OVC100 43 26     51% 37   29.54        
Dec 12 15:06 WNW 11 10 Cloudy SCT042 SCT049 OVC090 44 28     53% 38   29.53        
Dec 12 14:46 NNW 15 10 Cloudy BKN043 BKN049 OVC090 45 29     54% 38   29.52        
Dec 12 14:26 WNW 11 10 Cloudy SCT065 SCT075 OVC090 46 27     47% 41   29.51        
Dec 12 14:06 WNW 10 10 Cloudy SCT055 OVC065 46 27     47% 41   29.51        
Dec 12 13:46 NW 17 10 Cloudy BKN055 BKN065 OVC085 46 27     48% 39   29.51        
Dec 12 13:26 WNW 14 10 Cloudy BKN075 OVC085 46 29     51% 40   29.51        
Dec 12 13:06 WNW 10 10 Cloudy OVC080 46 30     54% 41   29.52        
Dec 12 12:46 Calm 10 Cloudy OVC080 45 30     55%     29.52        
Dec 12 12:26 W 6 10 Cloudy OVC070 45 30     55% 42   29.53        
Dec 12 12:06 WSW 3 10 Cloudy SCT070 OVC075 45 30     56% 43   29.54        
Dec 12 11:46 Calm 10 Cloudy OVC070 45 31     58%     29.55        
Dec 12 11:26 Calm 10 Cloudy OVC070 44 31     60%     29.55        
Dec 12 11:06 Calm 10 Cloudy OVC070 44 31     60%     29.57        
Dec 12 10:46 Calm 10 Cloudy OVC080 44 31     61%     29.57        
Dec 12 10:26 WSW 3 10 Cloudy OVC080 44 31     61% 42   29.58        
Dec 12 10:06 WSW 3 10 Cloudy OVC080 43 31     63% 41   29.58        
Dec 12 09:46 Calm 10 Partly Cloudy SCT080 42 31     64%     29.59        
Dec 12 09:26 Calm 10 Partly Cloudy SCT080 41 30     65%     29.59        
Dec 12 09:06 SW 3 10 Mostly Cloudy BKN080 41 31     66% 39   29.6        
Dec 12 08:46 Calm 10 Mostly Cloudy BKN080 41 31     68%     29.61        
Dec 12 08:26 Calm 10 Clear CLR 41 31     68%     29.6        
Dec 12 08:06 Calm 10 Partly Cloudy SCT110 41 31     67%     29.6        
Dec 12 07:46 S 5 10 Cloudy OVC110 41 31     66% 38   29.6        
Dec 12 07:26 S 3 10 Cloudy OVC110 41 31     66% 39   29.6        
Dec 12 07:06 Calm 10 Cloudy SCT100 OVC120 41 30     65%     29.6        
Dec 12 06:46 S 3 10 Cloudy OVC090 41 30     65% 39   29.61        
Dec 12 06:26 Calm 10 Cloudy OVC090 41 30     65%     29.61        
Dec 12 06:06 S 5 10 Cloudy OVC100 41 30     64% 38   29.63        
Dec 12 05:46 Calm 10 Cloudy OVC100 41 30     64%     29.64        
Dec 12 05:26 S 3 10 Mostly Cloudy BKN110 41 30     63% 40   29.64        
Dec 12 05:06 S 5 10 Partly Cloudy SCT120 42 30     63% 39   29.64        
Dec 12 04:46 SSW 3 10 Partly Cloudy SCT120 42 30     62% 40   29.66        
Dec 12 04:26 S 3 10 Partly Cloudy SCT120 41 30     64% 40   29.67        
Dec 12 04:06 Calm 10 Partly Cloudy SCT120 39 31     71%     29.69        
Dec 12 03:46 Calm 10 Clear CLR 38 31     76%     29.69        
Dec 12 03:26 Calm 10 Partly Cloudy SCT120 39 31     72%     29.71        
Dec 12 03:06 Calm 10 Clear CLR 39 31     72%     29.72        
Dec 12 02:46 Calm 10 Clear CLR 39 31     71%     29.74        
Dec 12 02:26 SSE 3 10 Clear CLR 39 31     71% 37   29.75        
Dec 12 02:06 SSE 3 10 Clear CLR 39 31     71% 37   29.76        
Dec 12 01:46 S 6 10 Clear CLR 39 30     70% 35   29.78        
Dec 12 01:26 SSE 3 10 Clear CLR 39 30     69% 37   29.79        
Dec 12 01:06 SSE 5 10 Clear CLR 39 30     69% 36   29.8        
Dec 12 00:46 SSE 3 10 Clear CLR 40 30     68% 38   29.82        
Dec 12 00:26 SSE 6 10 Clear CLR 40 30     68% 36   29.84        
Dec 12 00:06 SSE 7 10 Clear CLR 40 30     68% 35   29.83        
Dec 11 23:46 S 5 10 Clear CLR 40 30     68% 36   29.85        
Dec 11 23:26 SSE 5 10 Clear CLR 40 30     67% 36   29.86        
Dec 11 23:06 S 3 10 Clear CLR 40 30     67% 38   29.88        
Dec 11 22:46 SSE 3 10 Clear CLR 40 29     67% 37   29.89        
Dec 11 22:26 Calm 10 Clear CLR 39 29     67%     29.9        
Dec 11 22:06 S 5 10 Clear CLR 39 29     67% 36   29.91        
Dec 11 21:46 S 5 10 Clear CLR 39 29     67% 36   29.92        
Dec 11 21:26 Calm 10 Clear CLR 36 29     73%     29.93        
Dec 11 21:06 Calm 10 Clear CLR 34 28     79%     29.94        
Dec 11 20:46 Calm 10 Clear CLR 37 27     68%     29.94        
Dec 11 20:26 Calm 10 Clear CLR 37 27     67%     29.95        
Dec 11 20:06 Calm 10 Clear CLR 36 27     69%     29.95        
Dec 11 19:46 Calm 10 Clear CLR 36 26     67%     29.96        
Dec 11 19:26 Calm 10 Clear CLR 35 26     70%     29.96        
Dec 11 19:06 Calm 10 Clear CLR 39 26     59%     29.97        
Dec 11 18:46 Calm 10 Clear CLR 40 26     56%     29.96        
Dec 11 18:26 Calm 10 Clear CLR 40 26     56%     29.96        
Dec 11 18:06 SE 5 10 Clear CLR 41 26     54% 38   29.96        
Dec 11 17:46 SE 5 10 Clear CLR 41 25     52% 38   29.96        
Dec 11 17:26 Calm 10 Clear CLR 40 25     54%     29.96        
Dec 11 17:06 Calm 10 Clear CLR 42 24     47%     29.97        
Dec 11 16:46 Calm 10 Clear CLR 45 23     41%     29.98        
Dec 11 16:26 S 5 10 Clear CLR 46 23     41% 43   29.99        
Dec 11 16:06 Calm 10 Clear CLR 47 23     39%     29.99        
Dec 11 15:46 S 3 10 Clear CLR 47 22     38% 45   29.99        
Dec 11 15:26 S 5 10 Clear CLR 47 22     38% 45   29.98        
Dec 11 15:06 SSE 3 10 Clear CLR 47 22     37% 46   29.98        
Dec 11 14:46 WSW 5 10 Clear CLR 47 22     38% 45   29.99        
Dec 11 14:26 Calm 10 Clear CLR 47 22     37%     29.99        
Dec 11 14:06 Calm 10 Clear CLR 46 23     39%     29.99        
Dec 11 13:46 Calm 10 Clear CLR 46 22     38%     29.99        
Dec 11 13:26 WNW 7 10 Clear CLR 46 23     39% 43   29.99        
Dec 11 13:06 W 9 10 Clear CLR 45 23     40% 41   30.02        
Dec 11 12:46 W 5 10 Clear CLR 46 23     40% 43   30.03        
Dec 11 12:26 S 5 10 Clear CLR 45 23     42% 43   30.04        
Dec 11 12:06 SSW 6 10 Clear CLR 44 23     42% 41   30.05        
Dec 11 11:46 W 7 10 Clear CLR 45 23     43% 41   30.06        
Dec 11 11:26 WNW 7 10 Clear CLR 44 23     43% 40   30.08        
Dec 11 11:06 NW 5 10 Clear CLR 44 24     45% 41   30.09        
Dec 11 10:46 WNW 8 10 Clear CLR 43 22     44% 38   30.09        
Dec 11 10:26 W 7 10 Clear CLR 43 24     46% 39   30.1        
Dec 11 10:06 Calm 10 Clear CLR 42 25     50%     30.1        
Dec 11 09:46 Calm 10 Clear CLR 41 28     61%     30.09        
Dec 11 09:26 Calm 10 Clear CLR 39 28     63%     30.08        
Dec 11 09:06 Calm 10 Clear CLR 38 28     65%     30.08        
Dec 11 08:46 Calm 10 Partly Cloudy SCT060 36 30     78%     30.08        
Dec 11 08:26 Calm 10 Cloudy OVC060 35 30     84%     30.08        
Dec 11 08:06 Calm 10 Cloudy OVC060 34 29     82%     30.08        
Dec 11 07:46 Calm 10 Cloudy OVC060 34 29     80%     30.08        
Dec 11 07:26 Calm 10 Cloudy OVC060 33 29     83%     30.07        
Dec 11 07:06 Calm 10 Cloudy OVC060 33 28     82%     30.07        
Dec 11 06:46 Calm 10 Cloudy OVC060 34 28     77%     30.06        
Dec 11 06:26 Calm 10 Cloudy OVC060 33 29     85%     30.06        
Dec 11 06:06 Calm 10 Cloudy OVC060 32 29     87%     30.06        
Dec 11 05:46 Calm 10 Cloudy OVC060 32 28     83%     30.06        
Dec 11 05:26 Calm 10 Cloudy OVC070 32 28     85%     30.05        
Dec 11 05:06 Calm 10 Cloudy OVC070 33 27     79%     30.05        
Dec 11 04:46 Calm 10 Cloudy OVC070 32 27     83%     30.04        
Dec 11 04:26 Calm 10 Cloudy OVC070 32 28     85%     30.04        
Dec 11 04:06 Calm 10 Cloudy OVC070 32 28     83%     30.04        
Dec 11 03:46 Calm 10 Partly Cloudy SCT070 34 26     72%     30.03        
Dec 11 03:26 Calm 10 Partly Cloudy SCT100 34 27     77%     30.03        
Dec 11 03:06 Calm 10 Cloudy OVC100 36 26     66%     30.04        
Dec 11 02:46 Calm 10 Cloudy SCT080 OVC100 36 26     69%     30.03        
Notice The following observation data may not be complete
Jun 12 06:33   10 Mostly Cloudy BKN080          %              
Jun 12 03:33 Calm 10 Clear CLR 68 65     91%     30.05        
Notice The following observation data may not be complete
Jun 12 02:33 Calm 10 Clear CLR   67      %     30.05        
Jun 11 22:53 Calm 10 Clear CLR 75 65     72%   76 30.07        
Notice The following observation data may not be complete
Jun 11 21:13   10 Clear CLR          %              
Jun 11 06:13 Calm 10 Clear CLR 64 62     91%     30.1        
Notice The following observation data may not be complete
Jun 11 02:13   10 Clear CLR          %              
Notice The following observation data may not be complete
Jun 11 01:33 Calm 10 Clear CLR   61      %     30.07        
Jun 11 01:13 Calm 10 Clear CLR 69 61     77%     30.07        
Notice The following observation data may not be complete
Jun 11 00:13 Calm 10 Clear CLR   61      %     30.07        
Jun 10 22:33 Calm 10 Clear CLR 71 62     71%   72 30.07        
Notice The following observation data may not be complete
Jun 10 12:33   10 Clear CLR          %              
Jun 10 11:33 S 3 10 Clear CLR 82 53     36%   81 30.05        
Jun 10 09:33 Calm 10 Clear CLR 74 59     59%   74 30.04        
Notice The following observation data may not be complete
Jun 10 04:33 Calm 10 Clear CLR   56      %     29.98        
Jun 09 21:33 Calm 10 Clear CLR 67 54     62%     29.92        
Jun 09 17:33 WSW 5 10 Partly Cloudy SCT075 80 51     35%   80 29.84        
Jun 09 13:53 WNW 9 10 Partly Cloudy SCT065 SCT080 79 52     39%   78 29.85        
Notice The following observation data may not be complete
Jun 09 13:33   10 Mostly Cloudy BKN065          %              
Jun 09 12:53 WNW 9 10 Partly Cloudy SCT060 SCT070 77 52     41%   77 29.86        
Jun 09 09:53 WNW 9 10 Clear CLR 71 54     55%   70 29.85        
Notice The following observation data may not be complete
Jun 09 07:33   10 Clear CLR          %              
Jun 09 00:53 Calm 10 Clear CLR 54 51     90%     29.83        
Jun 08 15:53 N 5 10 Mostly Cloudy BKN075 72 47     42%   71 29.9        
Jun 08 14:53 NNE 7 10 Clear CLR 71 44     38%   70 29.92        
Jun 08 12:53 NE 8 10 Clear CLR 68 49     50%     29.96        
Jun 08 01:53 Calm 10 Clear CLR 51 50     97%     30.04        
Jun 07 22:53 Calm 10 Clear CLR 54 52     93%     30.05        
Jun 07 22:13 Calm 10 Clear CLR 54 52     92%     30.04        
Jun 07 11:53 NE 3 10 Cloudy SCT016 BKN023 OVC070 62 54     76%     29.99        
Jun 07 11:33 E 8 10 Cloudy BKN018 BKN023 OVC060 62 54     75%     29.98        
Jun 06 11:13 NW 9 10 Partly Cloudy SCT047 72 53     51%   71 29.76        
Notice The following observation data may not be complete
Jun 06 10:33   10 Clear CLR          %              
Jun 06 08:13 NNW 11 10 Partly Cloudy SCT025 69 59     71%     29.74        
Jun 06 07:13 NNW 6 10 Clear CLR 66 59     78%     29.72        
Notice The following observation data may not be complete
Jun 06 03:33   2.5 Mostly Cloudy BKN048          %              
Jun 06 00:13 Calm 3 Partly Cloudy SCT065 64 64     98%     29.68        
Notice The following observation data may not be complete
Jun 05 23:33   7 Clear CLR          %